TimeEST,TemperatureF,Dew PointF,Humidity,Sea Level PressureIn,VisibilityMPH,Wind Direction,Wind SpeedMPH,Gust SpeedMPH,PrecipitationIn,Events,Conditions,WindDirDegrees,DateUTC
12:15 AM,26.2,17.4,69,29.91,10.0,Calm,Calm,-,N/A,,Overcast,0,2013-02-15 05:15:00
12:35 AM,25.5,17.6,72,29.90,10.0,Calm,Calm,-,N/A,,Overcast,0,2013-02-15 05:35:00
12:55 AM,25.3,17.6,72,29.90,10.0,Calm,Calm,-,N/A,,Scattered Clouds,0,2013-02-15 05:55:00
1:15 AM,25.7,17.4,71,29.90,10.0,Calm,Calm,-,N/A,,Scattered Clouds,0,2013-02-15 06:15:00
1:35 AM,24.8,17.2,73,29.90,10.0,Calm,Calm,-,N/A,,Scattered Clouds,0,2013-02-15 06:35:00
1:55 AM,25.7,17.4,71,29.90,10.0,Calm,Calm,-,N/A,,Scattered Clouds,0,2013-02-15 06:55:00
2:15 AM,25.7,16.7,69,29.89,10.0,Calm,Calm,-,N/A,,Mostly Cloudy,0,2013-02-15 07:15:00
2:35 AM,26.6,16.7,66,29.87,10.0,Calm,Calm,-,N/A,,Overcast,0,2013-02-15 07:35:00
2:55 AM,25.2,17.6,73,29.87,10.0,Calm,Calm,-,N/A,,Overcast,0,2013-02-15 07:55:00
3:35 AM,27.1,16.9,65,29.87,10.0,South,3.5,-,N/A,,Overcast,190,2013-02-15 08:35:00
3:55 AM,27.3,17.4,66,29.86,10.0,South,4.6,-,N/A,,Overcast,190,2013-02-15 08:55:00
4:15 AM,28.0,17.2,64,29.86,10.0,South,5.8,-,N/A,,Overcast,170,2013-02-15 09:15:00
4:35 AM,27.1,18.0,68,29.86,10.0,SSE,4.6,-,N/A,,Overcast,150,2013-02-15 09:35:00
4:55 AM,27.5,17.6,66,29.86,10.0,South,8.1,-,N/A,,Overcast,180,2013-02-15 09:55:00
5:35 AM,27.3,19.8,73,29.84,5.0,South,10.4,-,N/A,Snow,Light Snow,170,2013-02-15 10:35:00
5:55 AM,26.6,20.8,79,29.86,7.0,South,8.1,-,N/A,Snow,Light Snow,170,2013-02-15 10:55:00
6:15 AM,27.1,21.6,80,29.86,10.0,SSE,6.9,-,N/A,,Overcast,150,2013-02-15 11:15:00
6:35 AM,27.3,21.7,80,29.85,10.0,SSE,4.6,-,N/A,,Overcast,150,2013-02-15 11:35:00
6:55 AM,27.1,21.6,80,29.85,10.0,South,5.8,-,N/A,,Overcast,170,2013-02-15 11:55:00
7:15 AM,27.3,21.6,79,29.85,7.0,South,4.6,-,N/A,,Overcast,170,2013-02-15 12:15:00
7:35 AM,27.7,22.1,80,29.85,5.0,South,6.9,-,N/A,Snow,Light Snow,170,2013-02-15 12:35:00
7:55 AM,28.2,22.1,78,29.85,7.0,SSE,5.8,-,N/A,Snow,Light Snow,160,2013-02-15 12:55:00
8:15 AM,28.2,23.2,81,29.86,1.2,South,8.1,-,N/A,Snow,Light Snow,170,2013-02-15 13:15:00
8:35 AM,28.4,24.3,84,29.85,10.0,South,6.9,-,N/A,,Overcast,170,2013-02-15 13:35:00
8:55 AM,29.1,24.6,83,29.85,10.0,SSE,6.9,-,N/A,,Overcast,150,2013-02-15 13:55:00
9:15 AM,29.3,24.3,81,29.86,10.0,SSE,4.6,-,N/A,,Mostly Cloudy,160,2013-02-15 14:15:00
9:35 AM,30.6,24.4,78,29.86,10.0,SSE,4.6,-,N/A,,Scattered Clouds,160,2013-02-15 14:35:00
9:55 AM,32.7,24.6,72,29.85,10.0,South,8.1,-,N/A,,Clear,170,2013-02-15 14:55:00
10:15 AM,33.4,24.4,70,29.85,10.0,SSE,6.9,-,N/A,,Scattered Clouds,150,2013-02-15 15:15:00
10:35 AM,35.1,25.0,67,29.85,10.0,SSE,4.6,-,N/A,,Overcast,160,2013-02-15 15:35:00
10:55 AM,35.8,24.8,64,29.85,10.0,SSE,8.1,-,N/A,,Overcast,160,2013-02-15 15:55:00
11:15 AM,37.2,25.2,62,29.84,10.0,South,6.9,-,N/A,,Overcast,190,2013-02-15 16:15:00
11:35 AM,37.6,24.8,60,29.84,10.0,South,5.8,-,N/A,,Overcast,180,2013-02-15 16:35:00
11:55 AM,38.7,25.2,58,29.84,10.0,South,5.8,-,N/A,,Mostly Cloudy,190,2013-02-15 16:55:00
12:15 PM,39.6,25.0,56,29.83,10.0,South,9.2,-,N/A,,Mostly Cloudy,170,2013-02-15 17:15:00
12:55 PM,39.0,25.3,58,29.82,10.0,SSE,6.9,-,N/A,,Overcast,160,2013-02-15 17:55:00
1:15 PM,41.0,20.5,44,29.81,10.0,SW,16.1,27.6,N/A,,Overcast,230,2013-02-15 18:15:00
1:35 PM,42.1,20.3,42,29.82,10.0,SW,11.5,20.7,N/A,,Mostly Cloudy,220,2013-02-15 18:35:00
1:55 PM,41.0,20.3,44,29.82,10.0,SW,13.8,19.6,N/A,,Mostly Cloudy,230,2013-02-15 18:55:00
2:15 PM,41.0,20.5,44,29.83,10.0,SW,11.5,17.3,N/A,,Overcast,220,2013-02-15 19:15:00
2:35 PM,41.0,20.7,44,29.83,10.0,SW,11.5,18.4,N/A,,Overcast,220,2013-02-15 19:35:00
2:55 PM,40.1,22.1,49,29.84,10.0,SW,12.7,20.7,N/A,,Overcast,230,2013-02-15 19:55:00
3:15 PM,38.8,23.9,55,29.85,10.0,West,10.4,18.4,N/A,,Overcast,260,2013-02-15 20:15:00
3:35 PM,39.6,22.1,50,29.86,10.0,SW,9.2,16.1,N/A,,Overcast,220,2013-02-15 20:35:00
3:55 PM,40.5,19.6,43,29.86,10.0,SW,10.4,21.9,N/A,,Mostly Cloudy,230,2013-02-15 20:55:00
4:15 PM,39.6,17.2,41,29.86,10.0,WSW,11.5,17.3,N/A,,Mostly Cloudy,250,2013-02-15 21:15:00
4:35 PM,39.6,17.4,41,29.86,10.0,WSW,5.8,-,N/A,,Scattered Clouds,250,2013-02-15 21:35:00
4:55 PM,38.7,18.1,44,29.87,10.0,WSW,5.8,-,N/A,,Mostly Cloudy,240,2013-02-15 21:55:00
5:15 PM,37.6,17.8,45,29.87,10.0,WSW,4.6,-,N/A,,Overcast,240,2013-02-15 22:15:00
5:35 PM,37.0,17.6,45,29.89,10.0,SSW,5.8,-,N/A,,Mostly Cloudy,210,2013-02-15 22:35:00
5:55 PM,36.5,17.6,46,29.89,10.0,SSW,5.8,-,N/A,,Unknown,210,2013-02-15 22:55:00
6:15 PM,36.5,16.7,45,29.90,10.0,SSW,5.8,-,N/A,,Unknown,210,2013-02-15 23:15:00
6:35 PM,36.1,16.5,45,29.90,10.0,SSW,5.8,-,N/A,,Unknown,210,2013-02-15 23:35:00
6:55 PM,36.0,17.4,47,29.91,10.0,SSW,4.6,-,N/A,,Unknown,200,2013-02-15 23:55:00
7:15 PM,36.0,17.1,46,29.91,10.0,SSW,4.6,-,N/A,,Unknown,200,2013-02-16 00:15:00
7:35 PM,36.3,16.7,45,29.91,10.0,SW,6.9,-,N/A,,Unknown,230,2013-02-16 00:35:00
7:55 PM,35.8,16.9,46,29.91,10.0,SW,4.6,-,N/A,,Unknown,230,2013-02-16 00:55:00
8:15 PM,35.1,17.4,49,29.91,10.0,Calm,Calm,-,N/A,,Unknown,0,2013-02-16 01:15:00
8:35 PM,34.3,17.6,50,29.91,10.0,WSW,3.5,-,N/A,,Unknown,240,2013-02-16 01:35:00
8:55 PM,34.0,17.4,51,29.91,10.0,West,3.5,-,N/A,,Unknown,260,2013-02-16 01:55:00
9:15 PM,33.4,17.6,52,29.92,10.0,West,3.5,-,N/A,,Unknown,270,2013-02-16 02:15:00
9:35 PM,32.0,18.9,58,29.92,10.0,NW,4.6,-,N/A,,Unknown,310,2013-02-16 02:35:00
9:55 PM,32.0,19.0,59,29.91,10.0,Calm,Calm,-,N/A,,Unknown,0,2013-02-16 02:55:00
10:15 PM,30.6,18.3,60,29.91,10.0,WNW,5.8,-,N/A,,Unknown,300,2013-02-16 03:15:00
10:35 PM,32.0,17.6,55,29.91,10.0,WNW,8.1,-,N/A,,Unknown,300,2013-02-16 03:35:00
10:55 PM,31.6,16.7,54,29.90,10.0,WNW,6.9,-,N/A,,Unknown,300,2013-02-16 03:55:00
11:15 PM,31.1,16.5,55,29.91,10.0,Calm,Calm,-,N/A,,Unknown,0,2013-02-16 04:15:00
11:35 PM,31.1,16.3,54,29.92,10.0,WNW,3.5,-,N/A,,Unknown,290,2013-02-16 04:35:00
11:55 PM,31.5,16.7,54,29.91,10.0,West,3.5,-,N/A,,Unknown,270,2013-02-16 04:55:00